Weather History for Kahului, HI

Change the Weather History Date:

Wednesday, November 27, 2013

  Actual Average Record
Temperature  
Mean Temperature 74 °F 75 °F  
Max Temperature 85 °F 83 °F 93 °F (2005)
Min Temperature 63 °F 67 °F 55 °F (1985)
Degree Days  
Heating Degree Days 0 0  
Month to date heating degree days 0 0  
Since 1 July heating degree days 0 0  
Cooling Degree Days 9 10  
Month to date cooling degree days 294 301  
Year to date cooling degree days 3947 3677  
Growing Degree Days 22 (Base 50)    
Moisture  
Dew Point 63 °F    
Average Humidity 64    
Maximum Humidity 84    
Minimum Humidity 44    
Precipitation  
Precipitation 0.00 in 0.10 in 2.78 in (2001)
Month to date precipitation 4.64 1.91  
Year to date precipitation 13.59 14.19  
Snow  
Snow 0.00 in - - ()
Month to date snowfall 0.0  
Since 1 July snowfall 0.0  
Since 1 September snowfall 0.0  
Snow Depth 0.00 in    
Sea Level Pressure  
Sea Level Pressure 30.04 in    
Wind  
Wind Speed 6 mph (NE)    
Max Wind Speed 18 mph    
Max Gust Speed 22 mph    
Visibility 10 miles    
Events      
T = Trace of Precipitation, MM = Missing Value Source: NWS Daily Summary

Daily Weather History Graph

Daily Weather History Graph

Search for Another Location

Airport:

Trip Planner

Search our weather history database for the weather conditions in past years. The results will help you decide how hot, cold, wet, or windy it might be!

Date:

Astronomy

Nov. 27, 2013 Rise Set
Actual Time 6:43 AM HST 5:43 PM HST
Civil Twilight 6:19 AM HST 6:07 PM HST
Nautical Twilight 5:52 AM HST 6:34 PM HST
Astronomical Twilight 5:25 AM HST 7:01 PM HST
Moon 1:35 AM HST (11/27) 1:51 PM HST (11/27)
Length of Visible Light 11h 47m
Length of Day
10h 59m
Waning Crescent, 30% of the Moon is Illuminated
Nov 27
Waning Crescent
Dec 2
New
Dec 9
First Quarter
Dec 16
Full
Dec 25
Last Quarter

Hourly Weather History & Observations

Time (HST) Temp. Heat Index Dew Point Humidity Pressure Visibility Wind Dir Wind Speed Gust Speed Precip Events Conditions
12:54 AM 73.9 °F - 64.0 °F 71% 30.12 in 10.0 mi NE 10.4 mph - N/A   Overcast
1:54 AM 72.0 °F - 63.0 °F 73% 30.10 in 10.0 mi NE 6.9 mph - N/A   Partly Cloudy
2:54 AM 72.0 °F - 63.0 °F 73% 30.09 in 10.0 mi NE 10.4 mph - N/A   Clear
3:54 AM 71.1 °F - 63.0 °F 75% 30.08 in 10.0 mi Calm Calm - N/A   Clear
4:54 AM 64.9 °F - 57.9 °F 78% 30.07 in 10.0 mi Calm Calm - N/A   Partly Cloudy
5:54 AM 66.0 °F - 57.9 °F 75% 30.06 in 10.0 mi NW 3.5 mph - N/A   Clear
6:54 AM 63.0 °F - 57.9 °F 84% 30.05 in 10.0 mi NE 3.5 mph - N/A   Clear
7:54 AM 69.1 °F - 57.9 °F 68% 30.06 in 10.0 mi SE 3.5 mph - N/A   Clear
8:54 AM 75.9 °F - 60.1 °F 58% 30.07 in 10.0 mi NW 3.5 mph - N/A   Partly Cloudy
9:54 AM 81.0 °F 82.2 °F 63.0 °F 54% 30.07 in 10.0 mi ENE 4.6 mph - N/A   Partly Cloudy
10:54 AM 80.1 °F 81.1 °F 61.0 °F 52% 30.06 in 10.0 mi North 8.1 mph - N/A   Partly Cloudy
11:54 AM 84.0 °F 84.4 °F 61.0 °F 46% 30.03 in 10.0 mi NW 4.6 mph - N/A   Partly Cloudy
12:54 PM 82.9 °F 83.7 °F 62.1 °F 49% 30.01 in 10.0 mi NE 3.5 mph - N/A   Scattered Clouds
1:54 PM 82.9 °F 85.0 °F 66.0 °F 56% 29.99 in 10.0 mi NE 12.7 mph - N/A   Scattered Clouds
2:54 PM 81.0 °F 83.3 °F 66.9 °F 62% 29.98 in 10.0 mi East 13.8 mph - N/A   Scattered Clouds
3:54 PM 81.0 °F 83.0 °F 66.0 °F 60% 29.97 in 10.0 mi ENE 12.7 mph - N/A   Scattered Clouds
4:54 PM 79.0 °F - 66.0 °F 64% 29.97 in 10.0 mi NE 10.4 mph - N/A   Scattered Clouds
5:54 PM 75.9 °F - 64.9 °F 69% 29.97 in 10.0 mi NE 11.5 mph - N/A   Scattered Clouds
6:54 PM 73.0 °F - 66.0 °F 79% 30.00 in 10.0 mi East 3.5 mph - N/A   Partly Cloudy
7:54 PM 73.0 °F - 64.9 °F 76% 30.03 in 10.0 mi East 5.8 mph - N/A   Partly Cloudy
8:54 PM 71.1 °F - 64.9 °F 81% 30.04 in 10.0 mi Calm Calm - N/A   Partly Cloudy
9:54 PM 73.0 °F - 66.0 °F 79% 30.04 in 10.0 mi North 5.8 mph - N/A   Scattered Clouds
10:54 PM 71.1 °F - 64.9 °F 81% 30.03 in 10.0 mi ESE 8.1 mph - N/A   Scattered Clouds
11:54 PM 69.1 °F - 64.0 °F 84% 30.02 in 10.0 mi South 6.9 mph - N/A   Clear